This demonstration page uses our WeatherBlox Daily Observations layout. Learn more.

Left ArrowRight Arrow

36.17497, -115.13722

Hourly Observations for January 7, 2017

Temp ( °F °C ) Dew Point ( °F °C ) Humidity (%) Winds ( mph kmh ) Pressure ( in mb ) Visibility ( mi km ) Precip ( " mm )
12:53 am 00:53 Clear 34 1.1 14 -10 44 44 N 3 6 30.33 1027 10 16.0934 0 0
1:53 am 01:53 Clear 35 1.7 16 -8.9 46 46 Calm 30.34 1027 10 16.0934 0 0
2:53 am 02:53 Clear 36 2.2 16 -8.9 44 44 NNE 3 6 30.34 1027 10 16.0934 0 0
3:53 am 03:53 Mostly Clear 37 2.8 15 -9.4 41 41 NW 5 7 30.34 1028 10 16.0934 0 0
4:53 am 04:53 Partly Cloudy 37 2.8 16 -8.9 42 42 Calm 30.34 1028 10 16.0934 0 0
5:53 am 05:53 Partly Cloudy 38 3.3 13 -10.6 36 36 SSW 5 7 30.35 1028 10 16.0934 0 0
6:53 am 06:53 Cloudy 40 4.4 12 -11.1 32 32 SSW 8 13 30.37 1028 10 16.0934 0 0
7:53 am 07:53 Cloudy 40 4.4 13 -10.6 33 33 SE 6 9 30.38 1029 10 16.0934 0 0
8:53 am 08:53 Cloudy 40 4.4 15 -9.4 36 36 ESE 5 7 30.4 1029 10 16.0934 0 0
9:53 am 09:53 Cloudy 42 5.6 14 -10 32 32 S 5 7 30.44 1031 10 16.0934 0 0
10:53 am 10:53 Cloudy 44 6.7 15 -9.4 31 31 SE 9 15 30.41 1030 10 16.0934 0 0
11:53 am 11:53 Cloudy 44 6.7 14 -10 30 30 ESE 9 15 30.38 1029 10 16.0934 0 0
12:53 pm 12:53 Cloudy 45 7.2 15 -9.4 30 30 ESE 8 13 30.35 1028 10 16.0934 0 0
1:53 pm 13:53 Cloudy 46 7.8 16 -8.9 30 30 SSE 3 6 30.34 1027 10 16.0934 0 0
2:53 pm 14:53 Cloudy 46 7.8 16 -8.9 30 30 E 7 11 30.35 1028 10 16.0934 0 0
3:53 pm 15:53 Cloudy 46 7.8 16 -8.9 30 30 S 3 6 30.37 1028 10 16.0934 0 0
4:53 pm 16:53 Cloudy 46 7.8 18 -7.8 32 32 SE 5 7 30.36 1028 10 16.0934 0 0
5:53 pm 17:53 Cloudy 46 7.8 18 -7.8 32 32 SE 6 9 30.36 1028 10 16.0934 0 0
6:53 pm 18:53 Cloudy 45 7.2 29 -1.7 54 54 SW 3 6 30.38 1029 10 16.0934 0 0
7:53 pm 19:53 Cloudy 46 7.8 24 -4.4 42 42 Calm 30.4 1029 10 16.0934 0 0
8:53 pm 20:53 Cloudy 46 7.8 23 -5 40 40 Calm 30.43 1030 10 16.0934 0 0
9:53 pm 21:53 Mostly Cloudy 45 7.2 29 -1.7 54 54 SSW 6 9 30.42 1030 10 16.0934 0 0
10:53 pm 22:53 Partly Cloudy 44 6.7 32 0 63 63 Calm 30.42 1030 10 16.0934 0 0
11:53 pm 23:53 Mostly Cloudy 43 6.1 28 -2.2 56 56 E 3 6 30.41 1030 10 16.0934 0 0

Powered by AerisWeather